Consulta les dades en temps real de l'estació municipal de El Brull
| Hora UTC | 20:30 |
|---|---|
| Temperatura | 20.0 ºC |
| Humitat | 73.8 % |
| Pressió | 1024.8 hPa |
| Pluja | 0.0 mm |
| Velocitat vent | 1.2 km/h |
| Direcció vent | ESE |
| Radiació solar | 0.0 W/m² |
| Temperatura (ºC) | Humitat (%) | Pressió (hPa) | Velocitat vent (km/h) | Precipitació (mm) | Radiació solar (W/m²) | |||||||||||||
|---|---|---|---|---|---|---|---|---|---|---|---|---|---|---|---|---|---|---|
| Hora UTC | Aire | Humitat | Pressió | Vel. | Dir. | Vel. Max | Dir. | Intent. màx 5 min. | Rad. Sol. | |||||||||
| 00:10 | 18.6 | 79.0 | 1023.1 | 2.3 | SSE | 4.0 | S | 0.0 | 0.0 | |||||||||
| 00:20 | 18.7 | 78.7 | 1023.0 | 1.3 | SSW | 3.5 | SSW | 0.0 | 0.0 | |||||||||
| 00:40 | 18.3 | 79.2 | 1023.0 | 1.7 | SE | 2.9 | SE | 0.0 | 0.0 | |||||||||
| 00:50 | 18.3 | 80.3 | 1023.0 | 0.0 | S | 1.3 | SSW | 0.0 | 0.0 | |||||||||
| 01:00 | 18.3 | 80.4 | 1023.0 | 0.7 | SSE | 3.8 | SSE | 0.0 | 0.0 | |||||||||
| 01:10 | 18.1 | 79.9 | 1023.0 | 2.2 | ESE | 4.1 | ESE | 0.0 | 0.0 | |||||||||
| 01:20 | 18.1 | 79.6 | 1023.0 | 2.2 | SE | 4.4 | SE | 0.0 | 0.0 | |||||||||
| 01:30 | 18.2 | 79.6 | 1022.8 | 2.8 | ESE | 4.6 | ESE | 0.0 | 0.0 | |||||||||
| 01:40 | 18.2 | 79.9 | 1022.7 | 3.0 | SE | 5.8 | SE | 0.0 | 0.0 | |||||||||
| 01:50 | 18.3 | 79.6 | 1022.8 | 2.2 | ESE | 5.8 | SE | 0.0 | 0.0 | |||||||||
| 02:00 | 18.4 | 79.3 | 1022.9 | 1.0 | ENE | 2.6 | ENE | 0.0 | 0.0 | |||||||||
| 02:20 | 18.2 | 81.5 | 1022.8 | 1.2 | NE | 3.4 | NE | 0.0 | 0.0 | |||||||||
| 02:30 | 18.2 | 82.1 | 1022.7 | 1.9 | E | 4.0 | SSE | 0.0 | 0.0 | |||||||||
| 02:40 | 18.2 | 81.7 | 1022.8 | 1.8 | ESE | 4.8 | SE | 0.0 | 0.0 | |||||||||
| 02:50 | 18.1 | 80.3 | 1022.8 | 1.9 | E | 4.8 | SE | 0.0 | 0.0 | |||||||||
| 03:00 | 18.1 | 80.2 | 1022.8 | 1.3 | SE | 3.4 | SSE | 0.0 | 0.0 | |||||||||
| 03:10 | 18.2 | 81.5 | 1022.9 | 1.9 | ESE | 7.1 | SE | 0.0 | 0.0 | |||||||||
| 03:20 | 18.1 | 81.6 | 1022.9 | 1.6 | E | 6.1 | SE | 0.0 | 0.0 | |||||||||
| 03:30 | 18.3 | 80.9 | 1022.8 | 2.4 | ENE | 5.2 | ENE | 0.0 | 0.0 | |||||||||
| 03:40 | 18.3 | 81.5 | 1022.9 | 0.9 | ENE | 2.4 | NE | 0.0 | 0.0 | |||||||||
| 03:50 | 18.4 | 82.5 | 1022.8 | 0.2 | NE | 1.4 | NE | 0.0 | 0.0 | |||||||||
| 04:00 | 18.2 | 83.4 | 1022.8 | 0.0 | NE | 0.8 | NE | 0.0 | 0.0 | |||||||||
| 04:10 | 18.0 | 83.9 | 1022.7 | 1.2 | ENE | 3.1 | ENE | 0.0 | 0.0 | |||||||||
| 04:20 | 18.0 | 84.4 | 1022.6 | 1.0 | ENE | 3.5 | NE | 0.0 | 0.0 | |||||||||
| 04:30 | 18.1 | 82.2 | 1022.6 | 1.4 | E | 4.5 | E | 0.0 | 0.0 | |||||||||
| 04:40 | 18.1 | 81.1 | 1022.6 | 2.2 | NE | 4.4 | NE | 0.0 | 0.0 | |||||||||
| 04:50 | 17.8 | 83.2 | 1022.6 | 0.4 | NNE | 2.0 | NNW | 0.0 | 0.0 | |||||||||
| 05:00 | 18.1 | 83.6 | 1022.6 | 0.6 | NE | 1.6 | NE | 0.0 | 0.2 | |||||||||
| 05:10 | 17.9 | 82.4 | 1022.6 | 0.3 | ENE | 2.6 | ENE | 0.0 | 1.0 | |||||||||
| 05:20 | 17.7 | 81.8 | 1022.7 | 1.5 | ENE | 7.2 | ENE | 0.0 | 3.0 | |||||||||
| 05:30 | 17.9 | 80.0 | 1022.7 | 2.0 | NE | 4.5 | ENE | 0.0 | 6.8 | |||||||||
| 05:40 | 18.0 | 82.6 | 1022.8 | 3.3 | N | 6.7 | N | 0.0 | 11.4 | |||||||||
| 05:50 | 17.7 | 83.9 | 1022.8 | 2.0 | N | 4.8 | N | 0.0 | 15.7 | |||||||||
| 06:00 | 17.5 | 83.9 | 1022.9 | 0.5 | NNE | 3.1 | N | 0.0 | 19.5 | |||||||||
| 06:10 | 17.7 | 83.8 | 1022.9 | 1.9 | NE | 2.9 | ENE | 0.0 | 25.0 | |||||||||
| 06:20 | 18.0 | 78.7 | 1023.0 | 1.3 | E | 4.1 | NNW | 0.0 | 30.1 | |||||||||
| 06:30 | 18.4 | 79.2 | 1023.1 | 2.1 | N | 4.2 | N | 0.0 | 45.7 | |||||||||
| 06:40 | 18.5 | 79.3 | 1023.2 | 4.0 | NNW | 6.7 | N | 0.0 | 153.7 | |||||||||
| 06:50 | 18.7 | 79.0 | 1023.3 | 4.1 | NNW | 7.3 | N | 0.0 | 201.2 | |||||||||
| 07:00 | 19.4 | 76.6 | 1023.6 | 3.4 | NNW | 7.5 | NNW | 0.0 | 232.2 | |||||||||
| 07:10 | 20.0 | 75.3 | 1023.6 | 3.7 | NNW | 7.5 | NNW | 0.0 | 262.5 | |||||||||
| 07:20 | 21.1 | 71.6 | 1023.5 | 2.3 | SSW | 5.6 | S | 0.0 | 293.9 | |||||||||
| 07:30 | 22.5 | 64.1 | 1023.5 | 1.8 | SSW | 4.6 | SSE | 0.0 | 326.1 | |||||||||
| 07:40 | 23.2 | 63.5 | 1023.5 | 1.8 | WNW | 4.7 | NW | 0.0 | 356.8 | |||||||||
| 07:50 | 22.8 | 68.0 | 1023.6 | 3.0 | NNW | 8.8 | N | 0.0 | 387.5 | |||||||||
| 08:00 | 23.0 | 67.5 | 1023.6 | 2.3 | NW | 6.2 | NNW | 0.0 | 416.5 | |||||||||
| 08:10 | 23.1 | 67.2 | 1023.7 | 2.0 | WSW | 5.4 | SSE | 0.0 | 444.9 | |||||||||
| 08:20 | 24.2 | 64.1 | 1023.8 | 2.4 | SW | 5.9 | W | 0.0 | 475.4 | |||||||||
| 08:30 | 24.2 | 64.0 | 1023.8 | 1.8 | W | 4.9 | W | 0.0 | 503.3 | |||||||||
| 08:40 | 24.6 | 62.5 | 1023.9 | 4.1 | WNW | 8.8 | W | 0.0 | 530.5 | |||||||||
| 08:50 | 25.3 | 60.9 | 1024.0 | 2.1 | NNW | 6.2 | N | 0.0 | 556.4 | |||||||||
| 09:00 | 25.8 | 59.2 | 1024.2 | 2.3 | NW | 7.6 | W | 0.0 | 581.3 | |||||||||
| 09:10 | 25.6 | 59.8 | 1024.1 | 2.5 | W | 7.1 | WNW | 0.0 | 604.9 | |||||||||
| 09:20 | 26.7 | 56.0 | 1024.1 | 3.0 | SW | 9.1 | SE | 0.0 | 632.3 | |||||||||
| 09:30 | 27.3 | 53.4 | 1024.2 | 3.2 | SW | 7.5 | W | 0.0 | 655.3 | |||||||||
| 09:40 | 27.2 | 52.4 | 1024.3 | 3.1 | SW | 8.3 | SSW | 0.0 | 677.9 | |||||||||
| 09:50 | 28.0 | 48.8 | 1024.4 | 2.6 | WSW | 9.5 | SSW | 0.0 | 697.6 | |||||||||
| 10:00 | 27.6 | 49.7 | 1024.4 | 3.0 | WNW | 9.4 | NW | 0.0 | 710.8 | |||||||||
| 10:10 | 27.6 | 49.6 | 1024.4 | 6.4 | WNW | 11.2 | WNW | 0.0 | 729.8 | |||||||||
| 10:20 | 27.5 | 49.5 | 1024.3 | 3.2 | NW | 8.7 | WNW | 0.0 | 749.5 | |||||||||
| 10:30 | 28.3 | 47.4 | 1024.3 | 2.8 | WSW | 9.9 | WNW | 0.0 | 763.1 | |||||||||
| 10:40 | 29.4 | 43.6 | 1024.2 | 6.8 | S | 15.4 | SSW | 0.0 | 762.9 | |||||||||
| 10:50 | 29.1 | 43.2 | 1024.2 | 6.2 | SSE | 13.9 | S | 0.0 | 773.1 | |||||||||
| 11:00 | 29.7 | 41.3 | 1024.2 | 6.1 | S | 19.6 | S | 0.0 | 778.0 | |||||||||
| 11:10 | 30.3 | 39.2 | 1024.1 | 7.2 | SSW | 16.5 | S | 0.0 | 811.0 | |||||||||
| 11:20 | 30.9 | 37.2 | 1024.1 | 11.0 | SSW | 22.8 | SSW | 0.0 | 818.0 | |||||||||
| 11:30 | 31.0 | 34.9 | 1024.1 | 9.9 | SSW | 19.2 | S | 0.0 | 817.0 | |||||||||
| 11:40 | 31.1 | 33.1 | 1024.0 | 8.5 | SSW | 17.4 | SSW | 0.0 | 827.0 | |||||||||
| 11:50 | 31.0 | 33.1 | 1024.0 | 11.0 | S | 19.3 | SSW | 0.0 | 829.0 | |||||||||
| 12:00 | 31.1 | 33.8 | 1024.0 | 10.5 | SSW | 25.2 | SSW | 0.0 | 827.0 | |||||||||
| 12:10 | 30.8 | 36.2 | 1023.9 | 11.8 | SSW | 24.3 | SSW | 0.0 | 826.0 | |||||||||
| 12:20 | 31.0 | 37.3 | 1023.9 | 8.9 | SSW | 21.5 | SW | 0.0 | 818.0 | |||||||||
| 12:30 | 30.6 | 38.4 | 1023.9 | 11.5 | SSW | 26.1 | S | 0.0 | 810.0 | |||||||||
| 12:40 | 30.6 | 39.1 | 1023.9 | 11.8 | SSW | 23.4 | SSW | 0.0 | 803.0 | |||||||||
| 12:50 | 30.2 | 39.9 | 1024.0 | 12.0 | S | 25.5 | SSW | 0.0 | 793.8 | |||||||||
| 13:00 | 29.5 | 41.1 | 1023.9 | 13.1 | SSW | 25.9 | S | 0.0 | 784.0 | |||||||||
| 13:10 | 29.6 | 40.8 | 1023.9 | 13.1 | SSW | 25.8 | S | 0.0 | 772.7 | |||||||||
| 13:30 | 29.1 | 42.1 | 1023.9 | 13.3 | SSW | 24.6 | S | 0.0 | 747.1 | |||||||||
| 13:40 | 28.9 | 42.6 | 1023.8 | 12.9 | SSW | 25.9 | S | 0.0 | 732.2 | |||||||||
| 13:50 | 29.0 | 42.5 | 1023.7 | 12.1 | SSW | 25.4 | SSW | 0.0 | 715.9 | |||||||||
| 14:00 | 29.1 | 42.5 | 1023.6 | 11.2 | SSW | 21.4 | SSW | 0.0 | 699.5 | |||||||||
| 14:10 | 29.0 | 42.6 | 1023.6 | 12.1 | SSW | 21.5 | SW | 0.0 | 681.8 | |||||||||
| 14:20 | 28.8 | 43.4 | 1023.6 | 12.9 | SSW | 25.0 | SSW | 0.0 | 656.9 | |||||||||
| 14:30 | 28.5 | 44.1 | 1023.5 | 11.7 | SSW | 23.9 | S | 0.0 | 632.1 | |||||||||
| 14:40 | 28.8 | 44.2 | 1023.4 | 10.6 | SSW | 21.2 | S | 0.0 | 608.4 | |||||||||
| 14:50 | 28.8 | 44.1 | 1023.3 | 11.0 | SSW | 24.5 | SSW | 0.0 | 585.9 | |||||||||
| 15:00 | 28.9 | 44.2 | 1023.3 | 9.5 | SSW | 22.7 | SSW | 0.0 | 562.0 | |||||||||
| 15:10 | 28.7 | 44.8 | 1023.3 | 10.7 | SSW | 23.9 | SSW | 0.0 | 536.2 | |||||||||
| 15:20 | 28.2 | 45.9 | 1023.3 | 12.1 | SSW | 25.0 | SSW | 0.0 | 508.4 | |||||||||
| 15:30 | 27.9 | 46.3 | 1023.3 | 9.6 | SSW | 23.1 | SSW | 0.0 | 470.8 | |||||||||
| 15:40 | 28.1 | 46.2 | 1023.2 | 9.4 | SSW | 19.6 | S | 0.0 | 450.7 | |||||||||
| 15:50 | 27.9 | 47.3 | 1023.3 | 9.3 | SSW | 21.3 | SSW | 0.0 | 419.5 | |||||||||
| 16:00 | 27.6 | 48.3 | 1023.2 | 9.9 | SSW | 18.6 | S | 0.0 | 388.5 | |||||||||
| 16:10 | 27.3 | 49.5 | 1023.2 | 8.7 | SSW | 17.5 | S | 0.0 | 355.0 | |||||||||
| 16:20 | 27.0 | 50.5 | 1023.2 | 9.0 | SSW | 16.7 | S | 0.0 | 327.5 | |||||||||
| 16:30 | 26.6 | 51.8 | 1023.2 | 9.5 | SSW | 19.4 | SSW | 0.0 | 300.4 | |||||||||
| 16:40 | 26.5 | 52.7 | 1023.2 | 6.6 | SSW | 15.2 | SSW | 0.0 | 265.7 | |||||||||
| 16:50 | 26.2 | 53.7 | 1023.2 | 5.5 | SSW | 10.7 | SSE | 0.0 | 212.6 | |||||||||
| 17:00 | 25.7 | 55.2 | 1023.3 | 4.0 | SSW | 10.2 | WSW | 0.0 | 171.4 | |||||||||
| 17:10 | 25.3 | 56.3 | 1023.3 | 5.1 | S | 10.2 | SSW | 0.0 | 198.4 | |||||||||
| 17:20 | 25.1 | 56.9 | 1023.3 | 5.5 | SSW | 12.3 | SW | 0.0 | 158.3 | |||||||||
| 17:30 | 24.5 | 59.0 | 1023.4 | 5.5 | SSW | 10.9 | S | 0.0 | 49.8 | |||||||||
| 17:40 | 23.9 | 60.9 | 1023.5 | 5.7 | SSW | 13.5 | S | 0.0 | 32.8 | |||||||||
| 18:00 | 22.8 | 63.8 | 1023.5 | 7.4 | SSW | 13.3 | SSW | 0.0 | 16.6 | |||||||||
| 18:10 | 22.4 | 65.0 | 1023.6 | 6.5 | SSW | 12.6 | S | 0.0 | 14.4 | |||||||||
| 18:20 | 22.0 | 66.0 | 1023.6 | 4.5 | S | 8.9 | SSW | 0.0 | 8.5 | |||||||||
| 18:30 | 21.6 | 66.7 | 1023.7 | 4.4 | S | 10.1 | SSW | 0.0 | 3.8 | |||||||||
| 18:40 | 21.3 | 67.7 | 1023.8 | 3.8 | S | 7.1 | S | 0.0 | 1.4 | |||||||||
| 19:00 | 20.8 | 70.0 | 1024.0 | 4.3 | SSE | 6.6 | SSE | 0.0 | 0.0 | |||||||||
| 19:10 | 20.7 | 70.6 | 1024.1 | 4.4 | S | 7.6 | S | 0.0 | 0.0 | |||||||||
| 19:30 | 20.2 | 72.4 | 1024.3 | 4.9 | SSE | 7.6 | SSE | 0.0 | 0.0 | |||||||||
| 19:40 | 20.1 | 72.7 | 1024.3 | 3.8 | SSE | 6.6 | ESE | 0.0 | 0.0 | |||||||||
| 19:50 | 20.2 | 73.0 | 1024.4 | 3.3 | SSE | 5.1 | SSE | 0.0 | 0.0 | |||||||||
| 20:00 | 20.2 | 73.4 | 1024.6 | 3.1 | SSW | 5.3 | SSW | 0.0 | 0.0 | |||||||||
| 20:10 | 20.2 | 73.6 | 1024.6 | 0.5 | SSW | 2.4 | SSW | 0.0 | 0.0 | |||||||||
| 20:20 | 20.1 | 73.8 | 1024.7 | 1.2 | ESE | 3.5 | SE | 0.0 | 0.0 | |||||||||
| 20:30 | 20.0 | 73.8 | 1024.8 | 1.2 | ESE | 3.3 | SE | 0.0 | 0.0 | |||||||||
| Màxima | 31.1 | 84.4 | 1024.8 | 13.3 | SSW | 26.1 | S | 0.0 | 829.0 | |||||||||
| Mínima | 17.5 | 33.1 | 1022.6 | |||||||||||||||
| Total | 0.0 | |||||||||||||||||